PDT,Max TemperatureF,Mean TemperatureF,Min TemperatureF,Max Dew PointF,MeanDew PointF,Min DewpointF,Max Humidity, Mean Humidity, Min Humidity, Max Sea Level PressureIn, Mean Sea Level PressureIn, Min Sea Level PressureIn, Max VisibilityMiles, Mean VisibilityMiles, Min VisibilityMiles, Max Wind SpeedMPH, Mean Wind SpeedMPH, Max Gust SpeedMPH,PrecipitationIn, CloudCover, Events, WindDirDegrees
2012-5-1,69,60,51,50,46,43,83,63,42,29.98,29.95,29.91,10,10,8,12,5,16,0.00,4,,102
2012-5-2,66,58,49,46,44,43,80,64,48,30.01,29.98,29.95,10,10,10,12,4,14,0.00,4,,107
2012-5-3,65,58,50,54,49,45,86,73,60,30.12,30.07,30.00,10,9,5,14,4,18,0.00,7,,232
2012-5-4,69,59,48,54,48,42,86,64,42,30.22,30.16,30.10,10,10,3,12,4,15,0.03,6,Rain,186
2012-5-5,76,61,45,48,44,39,83,58,33,30.22,30.14,30.06,10,10,10,12,4,,0.00,0,,180
2012-5-6,80,63,46,52,45,39,80,54,27,30.06,30.04,30.00,10,10,9,12,4,51,0.00,0,,204
2012-5-7,83,66,48,52,46,41,77,51,24,30.03,30.00,29.97,10,10,7,12,3,16,0.00,0,,189
2012-5-8,75,63,51,54,49,46,89,67,44,30.00,29.97,29.95,10,7,2,3,3,3,0.00,4,,153
2012-5-9,69,59,49,52,48,45,86,68,49,29.99,29.96,29.94,10,5,0,12,4,15,0.00,2,Fog,142
2012-5-10,70,60,49,52,47,43,86,69,51,29.95,29.92,29.88,10,6,0,10,3,15,0.00,5,Fog,141
2012-5-11,69,58,46,53,47,42,89,72,55,30.01,29.96,29.90,10,6,0,12,3,16,0.00,4,Fog,220
2012-5-12,69,60,50,53,48,46,89,73,57,30.09,30.05,30.01,10,5,0,14,4,17,0.01,6,Fog,229
2012-5-13,65,59,53,50,48,46,83,72,60,30.13,30.11,30.08,10,9,5,15,5,18,0.00,6,,237
2012-5-14,69,61,53,52,49,46,77,66,55,30.12,30.09,30.06,10,10,10,15,4,21,0.00,5,,239
2012-5-15,71,60,48,51,48,44,86,67,47,30.08,30.05,30.02,10,10,10,12,5,15,0.00,1,,126
2012-5-16,70,60,50,53,49,45,83,69,55,30.05,30.02,29.97,10,9,6,12,4,15,0.00,4,,153
2012-5-17,71,62,52,51,48,42,89,66,42,29.99,29.95,29.89,10,6,2,16,4,23,T,5,,152
2012-5-18,70,60,50,49,46,44,80,64,47,30.00,29.97,29.95,10,8,7,13,4,17,0.00,2,,82
2012-5-19,70,61,51,50,47,45,83,64,45,30.02,29.99,29.95,10,8,5,10,3,14,0.00,4,,150
2012-5-20,78,64,49,54,48,44,83,61,38,30.04,29.98,29.94,10,10,10,12,4,15,0.00,0,,160
2012-5-21,73,63,53,54,51,48,86,68,49,30.12,30.07,30.03,10,9,7,10,4,14,0.00,3,,142
2012-5-22,80,65,50,55,50,45,89,63,36,30.14,30.11,30.05,10,8,0,12,4,14,0.00,2,Fog,126
2012-5-23,79,65,50,50,46,44,80,56,32,30.06,29.99,29.91,10,10,10,16,5,21,0.00,1,,79
2012-5-24,75,62,48,48,44,39,83,59,35,29.95,29.86,29.74,10,9,2,15,4,20,0.00,2,,252
2012-5-25,66,56,45,46,42,38,77,60,42,29.88,29.81,29.77,10,10,10,22,8,29,0.00,1,,266
2012-5-26,64,58,51,48,46,43,83,70,56,30.14,30.00,29.88,10,10,7,18,5,22,0.00,7,,226
2012-5-27,67,59,51,49,46,44,77,65,52,30.17,30.13,30.09,10,10,10,13,4,16,0.00,3,,171
2012-5-28,72,60,47,49,46,43,80,60,40,30.09,30.06,30.02,10,10,10,12,5,15,0.00,0,,152
2012-5-29,69,59,48,49,46,41,80,64,47,30.09,30.07,30.04,10,10,10,12,4,15,0.00,0,,130
2012-5-30,70,60,50,51,48,45,89,70,51,30.13,30.09,30.05,10,8,2,10,4,14,0.00,4,,153
2012-5-31,74,61,48,53,48,44,89,68,46,30.06,30.01,29.90,10,6,0,12,3,14,0.00,3,Fog,176